This is the latest recevied weather packets stored in our database for station/object DL5ARK. If no packets are shown the sender has not sent any weather packets the latest 10 day(s).
| Time | Temp. | Humidity | Pressure | Rain* | Wind** | Luminosity | Snow |
|---|---|---|---|---|---|---|---|
| 1777992888 | 18.89° C | 59% | 992.9 hPa | 0 mm | - | - | - |
| 1777991987 | 18.89° C | 56% | 992.9 hPa | 0 mm | - | - | - |
| 1777991807 | 18.89° C | 57% | 992.9 hPa | 0 mm | - | - | - |
| 1777991628 | 18.89° C | 57% | 992.9 hPa | 0 mm | - | - | - |
| 1777991267 | 18.89° C | 57% | 992.9 hPa | 0 mm | - | - | - |
| 1777991087 | 19.44° C | 56% | 993.1 hPa | 0 mm | - | - | - |
| 1777990907 | 19.44° C | 55% | 993.1 hPa | 0 mm | - | - | - |
| 1777990728 | 19.44° C | 55% | 993.4 hPa | 0 mm | - | - | - |
| 1777990548 | 19.44° C | 54% | 993.4 hPa | 0 mm | - | - | - |
| 1777989828 | 20° C | 55% | 993.1 hPa | 0 mm | - | - | - |
| 1777989467 | 20° C | 52% | 993.4 hPa | 0 mm | - | - | - |
| 1777989108 | 21.11° C | 52% | 993.4 hPa | 0 mm | - | - | - |
| 1777988927 | 21.11° C | 52% | 993.4 hPa | 0 mm | - | - | - |
| 1777988387 | 21.67° C | 51% | 993.4 hPa | 0 mm | - | - | - |
| 1777988210 | 22.22° C | 48% | 993.4 hPa | 0 mm | - | - | - |
| 1777988028 | 23.33° C | 49% | 993.4 hPa | 0 mm | - | - | - |
| 1777987847 | 23.33° C | 49% | 993.4 hPa | 0 mm | - | - | - |
| 1777987668 | 23.33° C | 47% | 993.4 hPa | 0 mm | - | - | - |
| 1777987488 | 23.89° C | 47% | 993.6 hPa | 0 mm | - | - | - |
| 1777987307 | 23.89° C | 51% | 993.4 hPa | 0 mm | - | - | - |
| 1777987130 | 23.33° C | 49% | 993.6 hPa | 0 mm | - | - | - |
| 1777986948 | 22.78° C | 51% | 993.6 hPa | 0 mm | - | - | - |
| 1777986768 | 22.78° C | 51% | 993.6 hPa | 0 mm | - | - | - |
| 1777986228 | 22.78° C | 52% | 993.9 hPa | 0 mm | - | - | - |
| 1777986048 | 22.78° C | 53% | 993.6 hPa | 0 mm | - | - | - |
* Rain latest hour (hover to see other rain measurements)
** Current wind speed in m/s (hover to see current wind gust speed)